Starlink 32538

operational
NORAD ID: 62170 Int'l Des: 2024-225 Owner: SPXS Country: US Constellation: starlink
LEOCIRCULAR

Starlink 32538について

説明を読み込み中...

リアルタイム位置

3D地球を読み込み中...

次回通過

高度履歴

Altitude vs Time

uPlot chart will show altitude changes over time

軌道要素

1 62170U 24225H 26034.58784920 .00001878 00000-0 16516-3 0 9995
2 62170 69.9995 250.5651 0002385 271.2619 88.8267 14.98334647 64766
Epoch: Feb 3, 2026 • Age: 25 hours

現在のステータス

高度 595.9 km
速度 7.56 km/s
衛星直下点 -69.96°S, 159.93°E
打ち上げ日 Nov 30, 2024
運用期間 1.1 years
タイプ internet

技術仕様

分類 Payload
質量 730.00 kg
乾燥質量 700.00 kg
総質量 730.00 kg
長さ 0.30 m
直径 4.10 m
スパン 29.00 m
形状 Box + pan
製造者 SPXS
バスタイプ Starlink V2M
フェーズステータス In Orbit
所有者/国 SPXS/US

大規模コンステレーション

Loading constellations...